Weather in Kosino

Russia / Moscow Oblast     55°42′12″N   37°51′04″E
В апреле 2022 года жителям России запретили посещать сайт meteo.paraplan.net по решению Генеральной прокуратуры. Аудитория сайта уменьшилась в 10 раз. Владельцы сайта не видят смысла в поддержке погодного сервера в таких условиях. Сайт будет закрыт в октябре.
temp.,
°C
wind,
m/s
gust,
m/s
humid.,
%
clouds,
%
prec.,
mm/h
press.,
hPa
HPBL,
m
3 october, mon
mon300:00+11ene51487100 0.6 1000434
03:00+13e61597100 3.1 997767
06:00+14ese81694100 5.6 9941017
09:00+15ese91887100 6.5 9931280
12:00+14se91586100 0.4 9931294
15:00+12s61378100 0.8 9961356
18:00+9sse81475100 0.2 9991391
21:00+9sse91679100 0.7 10011545
4 october, tue
tue400:00+9sse61585100 0.4 10031366
03:00+10sse91671100 0.4 10041343
06:00+10sse81475100 0.0 10051446
09:00+10sse81576100 0.1 10061155
12:00+11sse81568100 0.1 10071614
15:00+9s61376100 1.4 10091235
18:00+9sse51081100 0.3 1009963
21:00+9sse61080100 0.4 10091070
5 october, wed
wed500:00+8s61082100 1.1 1009954
03:00+8s4789100 2.7 1009848
06:00+7s4588100 0.8 1010924
09:00+7sw3386100 1.2 1011880
12:00+7sw2382100 0.3 1012643
15:00+7w3479100 0.6 1013718
18:00+7w3678100 0.1 1014662
21:00+6w488655 0.2 1015555
6 october, thu
thu600:00+5w38905 0.0 1016400
03:00+6wsw2691100 0.0 1016314
06:00+7sw2592100 0.2 1016267
09:00+7s2594100 0.8 1015280
12:00+8ssw2694100 0.1 1015299
15:00+9sw3797100 0.4 1014365
18:00+9sw3109594 0.3 1014398
21:00+9wsw4149519 0.3 1013490
7 october, fri
fri700:00+10w4129459 0.0 1014523
03:00+10wnw5129118 0.0 1016628
06:00+9w5129033 0.0 1017604
09:00+10w5107939 0.0 1018777
12:00+9w51179100 0.1 10201177
15:00+12w612700 0.1 1019978
18:00+10w511762 0.0 1021795
21:00+9w412830 0.0 1022504